Culebra, VI

10:28 PM AST on December 04, 2016 (GMT -0400)
King

Weather History for TIST - January, 2013

Change the Weather History Date:

Wednesday, January 9, 2013

  Actual Average Record
Temperature  
Mean Temperature 81 °F 79 °F  
Max Temperature 85 °F 85 °F 92 °F (1996)
Min Temperature 76 °F 73 °F 65 °F (1987)
Degree Days  
Heating Degree Days 0 0  
Month to date heating degree days 0 0  
Since 1 July heating degree days 0 0  
Cooling Degree Days 16 14  
Month to date cooling degree days 135 126  
Year to date cooling degree days 135 126  
Growing Degree Days 30 (Base 50)    
Moisture  
Dew Point 66 °F    
Average Humidity 61    
Maximum Humidity 74    
Minimum Humidity 48    
Precipitation  
Precipitation 0.02 in 0.08 in 0.94 in (1956)
Month to date precipitation 0.27 0.78  
Year to date precipitation 0.27 0.78  
Sea Level Pressure  
Sea Level Pressure 30.14 in    
Wind  
Wind Speed 14 mph (East)    
Max Wind Speed 24 mph    
Max Gust Speed 37 mph    
Visibility 10 miles    
Events      
T = Trace of Precipitation, MM = Missing Value Source: NWS Daily Summary

Daily Weather History Graph

Daily Weather History Graph

Search for Another Location

Airport or City:

Trip Planner

Search our weather history database for the weather conditions in past years. The results will help you decide how hot, cold, wet, or windy it might be!

Date:

Astronomy

Jan. 09, 2013 Rise Set
Actual Time 6:54 AM AST 6:00 PM AST
Civil Twilight 6:30 AM AST 6:23 PM AST
Nautical Twilight 6:03 AM AST 6:50 PM AST
Astronomical Twilight 5:36 AM AST 7:17 PM AST
Moon 4:28 AM AST (1/9) 3:58 PM AST (1/9)
Length of Visible Light 11h 53m
Length of Day
11h 06m
Waning Crescent, 7% of the Moon is Illuminated
Jan 9
Waning Crescent
Jan 11
New
Jan 18
First Quarter
Jan 27
Full
Feb 3
Last Quarter

Hourly Weather History & Observations

Time (AST) Temp. Heat Index Dew Point Humidity Pressure Visibility Wind Dir Wind Speed Gust Speed Precip Events Conditions
1:53 AM 77.0 °F - 68.0 °F 74% 30.11 in 10.0 mi East 11.5 mph - N/A   Scattered Clouds
2:53 AM 77.0 °F - 66.9 °F 71% 30.11 in 10.0 mi East 11.5 mph 24.2 mph N/A   Mostly Cloudy
3:53 AM 77.0 °F - 66.9 °F 71% 30.09 in 10.0 mi East 15.0 mph - N/A   Clear
4:53 AM 75.9 °F - 66.0 °F 71% 30.10 in 10.0 mi East 9.2 mph - N/A   Clear
5:53 AM 77.0 °F - 66.9 °F 71% 30.12 in 10.0 mi East 11.5 mph - N/A   Overcast
6:53 AM 75.9 °F - 64.0 °F 67% 30.13 in 10.0 mi ESE 10.4 mph - N/A   Partly Cloudy
7:53 AM 78.1 °F - 66.0 °F 66% 30.16 in 10.0 mi East 12.7 mph 26.5 mph N/A   Clear
8:53 AM 80.1 °F 82.3 °F 66.9 °F 64% 30.18 in 10.0 mi East 12.7 mph 24.2 mph N/A   Mostly Cloudy
9:53 AM 79.0 °F - 68.0 °F 69% 30.19 in 10.0 mi East 17.3 mph 25.3 mph N/A   Overcast
10:53 AM 82.0 °F 85.9 °F 70.0 °F 67% 30.19 in 10.0 mi ESE 18.4 mph 25.3 mph 0.02 in   Overcast
11:53 AM 84.0 °F 86.5 °F 66.9 °F 56% 30.16 in 10.0 mi East 19.6 mph 29.9 mph N/A   Mostly Cloudy
12:53 PM 84.0 °F 85.8 °F 64.9 °F 53% 30.14 in 10.0 mi ENE 13.8 mph 20.7 mph N/A   Clear
1:53 PM 84.9 °F 85.4 °F 62.1 °F 46% 30.12 in 10.0 mi East 17.3 mph 27.6 mph N/A   Clear
2:53 PM 84.9 °F 87.6 °F 66.9 °F 55% 30.10 in 10.0 mi East 15.0 mph 24.2 mph N/A   Partly Cloudy
3:53 PM 82.0 °F 84.1 °F 66.0 °F 58% 30.10 in 10.0 mi East 20.7 mph 31.1 mph N/A   Clear
4:53 PM 80.1 °F 82.3 °F 66.9 °F 64% 30.11 in 10.0 mi ENE 19.6 mph 26.5 mph N/A   Clear
5:53 PM 79.0 °F - 68.0 °F 69% 30.12 in 10.0 mi East 18.4 mph 25.3 mph N/A   Partly Cloudy
6:53 PM 78.1 °F - 66.9 °F 68% 30.13 in 10.0 mi East 17.3 mph 27.6 mph N/A   Partly Cloudy
7:53 PM 78.1 °F - 64.9 °F 64% 30.14 in 10.0 mi East 11.5 mph 23.0 mph N/A   Partly Cloudy
8:53 PM 77.0 °F - 64.0 °F 64% 30.16 in 10.0 mi East 12.7 mph 18.4 mph N/A   Partly Cloudy
9:53 PM 77.0 °F - 66.0 °F 69% 30.18 in 10.0 mi East 10.4 mph - N/A   Partly Cloudy
10:53 PM 77.0 °F - 66.0 °F 69% 30.17 in 10.0 mi East 10.4 mph - N/A   Clear
11:53 PM 77.0 °F - 66.0 °F 69% 30.17 in 10.0 mi East 10.4 mph - N/A   Clear